Location: Warner Observatory
(35.1353°N, 89.5455°W)
Time: 13:52:51
(UTC-06:00)

Envisat - Pass Details

Date: 23 January 2020
Orbit: 764 x 766 km, 98.1° (Epoch: 17 February)

Event Time Altitude Azimuth Distance (km) Brightness Sun altitude
Rises 06:28:39 0° 14° (NNE) 3,236 6.2 -7.4°
Reaches altitude 10° 06:30:59 10° 16° (NNE) 2,306 5.5 -7.0°
Maximum altitude 06:36:03 74° 101° (ESE) 796 3.3 -6.0°
Drops below altitude 10° 06:41:06 10° 187° (S) 2,291 5.7 -5.0°
Sets 06:43:24 0° 189° (S) 3,213 6.4 -4.6°
